sat.trackr.live / text

‹ back to catalog

STARLINK-35733

NORAD 66224 · 2025-244U

PAYLOAD ACTIVE UNKNOWN

§ Identity

Operator
Country
US
Launch date
2025-10-28
Launch site
AFWTR
Launch vehicle
Mass (kg)
RCS (m²)

Purposes: comms

External: N2YO · Heavens-Above · Gunter

§ Orbital elements

Epoch: 2026-09-20T19:15:54.676224Z

Period
93.85 min
Inclination
53.1603°
Eccentricity
0.0001836
Mean motion
15.34395417 rev/d
Perigee alt
461.5 km
Apogee alt
464.0 km
Semi-major
6,840.9 km
B*
5.0955e-4
RAAN
42.1071°
Arg perigee
357.0797°
Mean anomaly
3.0195°
Rev number
5,155

§ Raw data

STARLINK-357331 66224U 25244U   26263.80271616  .00016876  00000+0  50955-3 0  99912 66224  53.1603  42.1071 0001836 357.0797   3.0195 15.34395417 51557

JSON: /api/v1/satellites/66224 · /tle

For live sub-satellite position, see the globe view (requires WebGL).

§ Visibility from observer

Set your observer location to see the next 7 days of passes ≥ 10°. The values pass through the URL so the page stays shareable.

No JS? Fill the form by hand. The geolocation button needs JavaScript.